Location: Bussy-Saint-Georges
(48.8410°N, 2.7017°E)
Time: 04:31:48
(UTC+00:00)

Spot 2 - Pass Details

Date: 18 October 2021
Orbit: 570 x 772 km, 98.7° (Epoch: 30 November)

Event Time Altitude Azimuth Distance (km) Brightness Sun altitude
Rises 17:41:12 0° 144° (SE) 2,777 7.1 -8.6°
Reaches altitude 10° 17:43:23 10° 137° (SE) 1,896 6.2 -8.9°
Maximum altitude 17:47:14 41° 67° (ENE) 872 4.4 -9.6°
Drops below altitude 10° 17:51:15 10° 358° (N) 1,986 6.7 -10.2°
Sets 17:53:35 0° 351° (N) 2,928 7.6 -10.6°
